CW8319 Weather Reports


Display with metric or nautical units.
time (UTC)temp
F
wind
direction
speed
MPH
gust
MPH
rain 1hr
in
rain 24hr
in
rain mn
in
humidity
%
barometer
mb
20260509210336 77 341 0.0 1.0 0.00 0.00 0.00 66 1016.8
20260509203349 79 341 2.0 3.0 0.00 0.00 0.00 61 1016.7
20260509200351 80 341 2.0 3.0 0.00 0.00 0.00 59 1016.5
20260509193410 81 341 2.0 3.0 0.00 0.00 0.00 59 1016.5
20260509190343 81 340 1.0 4.0 0.00 0.00 0.00 58 1016.5
20260509183344 82 326 2.0 9.0 0.00 0.00 0.00 55 1016.6
20260509180345 83 342 3.0 10.0 0.00 0.00 0.00 54 1016.6
20260509173400 85 320 5.0 9.0 0.00 0.00 0.00 51 1016.5
20260509170342 83 319 4.0 12.0 0.00 0.00 0.00 56 1016.7
20260509163358 83 315 7.0 12.0 0.00 0.00 0.00 54 1017.0
20260509160357 82 346 1.0 4.0 0.00 0.00 0.00 59 1017.5
20260509153350 79 69 2.0 4.0 0.00 0.00 0.00 65 1018.0
20260509150344 78 89 2.0 3.0 0.00 0.00 0.00 65 1018.6
20260509143358 80 14 0.0 2.0 0.00 0.00 0.00 63 1019.0
20260509140404 77 5 1.0 2.0 0.00 0.00 0.00 69 1019.3
20260509133420 75 282 1.0 2.0 0.00 0.00 0.00 71 1019.6
20260509130407 72 302 0.0 1.0 0.00 0.00 0.00 78 1019.7
20260509123342 68 296 1.0 2.0 0.00 0.00 0.00 89 1020.0
20260509120405 65 296 1.0 1.0 0.00 0.00 0.00 91 1020.0
20260509113423 63 294 0.0 1.0 0.00 0.00 0.00 93 1019.6
20260509113340 63 294 0.0 1.0 0.00 0.00 0.00 93 1019.6
20260509110345 61 294 0.0 1.0 0.00 0.00 0.00 93 1019.3
20260509103400 61 298 0.0 1.0 0.00 0.00 0.00 94 1018.8
20260509100335 60 298 0.0 2.0 0.00 0.00 0.00 93 1018.4
20260509093358 60 290 0.0 1.0 0.00 0.00 0.00 93 1018.0
20260509090406 60 290 0.0 1.0 0.00 0.00 0.00 93 1017.6
20260509083344 61 290 0.0 0.0 0.00 0.00 0.00 92 1017.3
20260509080350 61 290 0.0 1.0 0.00 0.00 0.00 92 1017.2
20260509073342 61 290 0.0 1.0 0.00 0.00 0.00 90 1016.9
20260509070352 62 288 0.0 1.0 0.00 0.00 0.00 90 1016.9
20260509063345 62 296 0.0 1.0 0.00 0.00 0.00 91 1016.7
20260509060333 62 296 0.0 1.0 0.00 0.00 0.00 90 1016.5
20260509053349 62 296 0.0 0.0 0.00 0.00 0.00 89 1016.5
20260509050354 62 296 0.0 1.0 0.00 0.00 0.00 90 1016.8
20260509043358 62 296 0.0 1.0 0.00 0.00 0.00 88 1016.8
20260509040337 63 296 0.0 1.0 0.00 0.00 0.00 86 1016.8
20260509033335 64 296 0.0 1.0 0.00 0.00 0.00 86 1016.6
20260509030353 65 296 0.0 1.0 0.00 0.00 0.00 85 1016.8
20260509023353 65 296 0.0 1.0 0.00 0.00 0.00 84 1016.7
20260509020357 65 296 1.0 1.0 0.00 0.00 0.00 83 1016.7
20260509013352 67 296 0.0 1.0 0.00 0.00 0.00 80 1016.6
20260509010347 68 296 0.0 1.0 0.00 0.00 0.00 77 1016.6
20260509003347 69 296 0.0 1.0 0.00 0.00 0.00 75 1016.6
20260509000414 70 323 1.0 2.0 0.00 0.00 0.00 75 1016.5
20260508233336 71 323 1.0 2.0 0.00 0.00 0.00 73 1016.4
20260508230335 72 323 0.0 0.0 0.00 0.00 0.00 70 1016.2
20260508223353 74 323 0.0 2.0 0.00 0.00 0.00 67 1016.0
20260508220358 75 323 0.0 2.0 0.00 0.00 0.00 64 1015.8
20260508213337 76 322 0.0 0.0 0.00 0.00 0.00 63 1015.4